Date String (YYYY-MM-DD hh:mm:ss) UTC,Instrument flags,Ambient pressure (hPa),Sample flow (lpm),Bypass flow (lpm),Sample temperature (°C),Ambient temperature (°C),ASC tube jacket temperature (°C),LED temperature (°C),Box temperature (°C),Sample RH (%),Span deviation,Mass concentration (μg/m³),Mass concentration (μg/m³),Mass concentration (μg/m³)
DateTimeUTC,F1_M11,P_M11,Q1_M11,Q2_M11,T1_M11,T2_M11,T3_M11,T4_M11,T5_M11,U1_M11,ZSPAN_M11,X0_M11,X2_M11,X1_M11
2023-02-16 18:00:00,,0828.4,4.95,0.00,22.3,21.6,00.0,31.0,24.1,06.7,0000.0,0007.62,0004.24,0003.76
2023-02-16 18:01:00,,0828.3,4.96,0.00,22.2,21.2,00.0,31.0,24.0,06.9,0000.0,0007.75,0004.25,0003.75
2023-02-16 18:02:00,,0828.3,5.03,0.00,22.2,20.9,00.0,31.0,23.9,06.8,0000.0,0008.12,0004.22,0003.75
2023-02-16 18:03:00,,0828.3,4.99,0.00,22.2,20.8,00.0,31.0,23.9,06.8,0000.0,0008.05,0004.18,0003.74
2023-02-16 18:04:00,,0828.3,5.03,0.00,22.2,20.6,00.0,31.0,23.8,07.0,0000.0,0008.09,0004.19,0003.74
2023-02-16 18:05:00,,0828.3,5.00,0.00,22.1,20.4,00.0,31.0,23.8,07.0,0000.0,0008.01,0004.20,0003.73
2023-02-16 18:06:00,,0828.2,4.99,0.00,22.1,20.3,00.0,31.0,23.7,07.0,0000.0,0007.98,0004.17,0003.73
2023-02-16 18:07:00,,0828.2,5.00,0.00,22.1,20.2,00.0,31.0,23.7,07.1,0000.0,0007.97,0004.15,0003.73
2023-02-16 18:08:00,,0828.2,5.00,0.00,22.0,20.2,00.0,31.0,23.7,07.1,0000.0,0007.90,0004.15,0003.72
2023-02-16 18:09:00,,0828.2,4.99,0.00,22.0,20.1,00.0,31.0,23.6,07.2,0000.0,0007.87,0004.14,0003.69
2023-02-16 18:10:00,,0828.3,5.00,0.00,22.0,20.0,00.0,30.9,23.6,07.1,0000.0,0007.86,0004.13,0003.68
2023-02-16 18:11:00,,0828.3,5.03,0.00,21.9,20.0,00.0,30.9,23.5,07.1,0000.0,0007.89,0004.13,0003.69
2023-02-16 18:12:00,,0828.2,4.98,0.00,21.9,19.9,00.0,30.9,23.4,07.0,0000.0,0007.95,0004.10,0003.68
2023-02-16 18:13:00,,0828.2,4.99,0.00,21.9,19.8,00.0,30.9,23.4,07.1,0000.0,0007.94,0004.09,0003.65
2023-02-16 18:14:00,,0828.2,5.00,0.00,21.8,19.8,00.0,30.9,23.4,07.1,0000.0,0008.21,0004.07,0003.64
2023-02-16 18:15:00,,0828.2,5.03,0.00,21.8,19.7,00.0,30.8,23.3,07.1,0000.0,0008.69,0004.00,0003.61
2023-02-16 18:16:00,,0828.2,5.04,0.00,21.7,19.8,00.0,30.8,23.3,07.2,0000.0,0008.77,0004.00,0003.60
2023-02-16 18:17:00,,0828.2,5.05,0.00,21.8,21.3,00.0,30.8,23.6,07.2,0000.0,0008.56,0003.97,0003.58
2023-02-16 18:18:00,,0828.2,5.01,0.00,22.0,22.7,00.0,30.8,24.0,07.2,0000.0,0008.34,0003.94,0003.57
2023-02-16 18:19:00,,0828.2,4.98,0.00,22.1,22.5,00.0,30.8,24.1,07.1,0000.0,0008.29,0003.91,0003.55
2023-02-16 18:20:00,,0828.2,5.01,0.00,22.1,22.0,00.0,30.9,24.0,07.1,0000.0,0008.32,0003.91,0003.54
2023-02-16 18:21:00,,0828.2,4.98,0.00,22.1,21.4,00.0,30.9,23.8,07.1,0000.0,0008.32,0003.91,0003.52
2023-02-16 18:22:00,,0828.3,5.01,0.00,22.0,21.0,00.0,30.9,23.7,07.1,0000.0,0008.48,0003.89,0003.51
2023-02-16 18:23:00,,0828.1,5.00,0.00,22.0,20.7,00.0,30.9,23.6,07.1,0000.0,0008.91,0003.87,0003.49
2023-02-16 18:24:00,,0828.1,5.01,0.00,22.0,20.5,00.0,30.9,23.6,07.4,0000.0,0008.56,0003.84,0003.47
2023-02-16 18:25:00,,0828.1,5.00,0.00,21.9,20.3,00.0,30.9,23.5,07.4,0000.0,0008.19,0003.81,0003.46
2023-02-16 18:26:00,,0828.1,5.00,0.00,21.9,20.2,00.0,30.9,23.5,07.5,0000.0,0007.64,0003.82,0003.45
2023-02-16 18:27:00,,0828.1,5.01,0.00,21.9,20.2,00.0,30.9,23.5,07.4,0000.0,0007.52,0003.79,0003.42
2023-02-16 18:28:00,,0828.1,4.98,0.00,21.9,20.2,00.0,30.9,23.5,07.3,0000.0,0007.41,0003.75,0003.41
2023-02-16 18:29:00,,0828.1,5.01,0.00,21.9,20.1,00.0,30.8,23.5,07.0,0000.0,0007.43,0003.73,0003.37
2023-02-16 18:30:00,,0828.1,4.99,0.00,21.8,20.0,00.0,30.8,23.4,07.1,0000.0,0007.31,0003.68,0003.34
2023-02-16 18:31:00,,0828.1,5.01,0.00,21.8,20.0,00.0,30.8,23.4,07.1,0000.0,0007.21,0003.65,0003.33
2023-02-16 18:32:00,,0828.1,4.98,0.00,21.8,19.8,00.0,30.8,23.3,07.2,0000.0,0007.18,0003.64,0003.31
2023-02-16 18:33:00,,0828.1,5.00,0.00,21.7,19.8,00.0,30.8,23.3,07.2,0000.0,0006.99,0003.61,0003.28
2023-02-16 18:34:00,,0828.1,5.03,0.00,21.7,19.7,00.0,30.8,23.2,07.2,0000.0,0005.46,0003.58,0003.26
2023-02-16 18:35:00,,0828.1,4.98,0.00,21.7,19.7,00.0,30.7,23.2,07.2,0000.0,0005.53,0003.59,0003.25
2023-02-16 18:36:00,,0828.0,5.04,0.00,21.7,19.8,00.0,30.7,23.3,07.3,0000.0,0005.42,0003.60,0003.24
2023-02-16 18:37:00,,0828.0,4.99,0.00,21.7,21.0,00.0,30.7,23.5,07.5,0000.0,0005.44,0003.60,0003.23
2023-02-16 18:38:00,,0828.0,4.98,0.00,21.9,22.5,00.0,30.7,23.9,07.3,0000.0,0005.28,0003.59,0003.23
2023-02-16 18:39:00,,0828.0,4.95,0.00,22.0,22.9,00.0,30.7,24.1,07.5,0000.0,0005.40,0003.62,0003.24
2023-02-16 18:40:00,,0828.1,5.05,0.00,22.1,22.4,00.0,30.8,24.1,07.5,0000.0,0007.00,0003.64,0003.26
2023-02-16 18:41:00,,0828.0,5.02,0.00,22.1,21.9,00.0,30.8,24.0,07.4,0000.0,0008.27,0003.65,0003.27
2023-02-16 18:42:00,,0828.0,5.01,0.00,22.1,21.5,00.0,30.9,23.9,07.3,0000.0,0008.57,0003.67,0003.28
2023-02-16 18:43:00,,0828.0,4.99,0.00,22.1,21.2,00.0,30.9,23.9,07.5,0000.0,0008.51,0003.67,0003.30
2023-02-16 18:44:00,,0828.0,5.01,0.00,22.1,20.8,00.0,30.9,23.7,07.4,0000.0,0008.55,0003.68,0003.32
2023-02-16 18:45:00,,0828.0,5.03,0.00,22.1,20.6,00.0,30.9,23.6,07.5,0000.0,0008.73,0003.70,0003.34
2023-02-16 18:46:00,,0828.0,4.98,0.00,22.0,20.4,00.0,30.9,23.6,07.7,0000.0,0009.03,0003.70,0003.36
2023-02-16 18:47:00,,0827.9,5.00,0.00,22.0,20.2,00.0,30.9,23.5,07.5,0000.0,0009.12,0003.71,0003.36
2023-02-16 18:48:00,,0827.9,5.01,0.00,21.9,20.1,00.0,30.9,23.4,07.5,0000.0,0009.17,0003.74,0003.38
2023-02-16 18:49:00,,0828.0,5.01,0.00,21.9,20.0,00.0,30.9,23.4,07.7,0000.0,0009.20,0003.75,0003.39
2023-02-16 18:50:00,,0828.0,5.00,0.00,21.9,20.0,00.0,30.8,23.4,07.7,0000.0,0009.21,0003.76,0003.40
2023-02-16 18:51:00,,0828.0,4.99,0.00,21.8,19.9,00.0,30.8,23.4,07.5,0000.0,0008.48,0003.79,0003.41
2023-02-16 18:52:00,,0827.9,5.02,0.00,21.8,19.9,00.0,30.8,23.4,07.5,0000.0,0007.45,0003.82,0003.43
2023-02-16 18:53:00,,0828.0,4.98,0.00,21.8,19.8,00.0,30.8,23.3,07.6,0000.0,0007.23,0003.84,0003.45
2023-02-16 18:54:00,,0827.9,4.99,0.00,21.8,19.8,00.0,30.8,23.3,07.6,0000.0,0007.42,0003.86,0003.47
2023-02-16 18:55:00,,0827.9,5.00,0.00,21.7,19.8,00.0,30.8,23.3,07.5,0000.0,0007.50,0003.91,0003.51
2023-02-16 18:56:00,,0827.8,5.01,0.00,21.7,19.8,00.0,30.7,23.3,07.5,0000.0,0007.55,0003.93,0003.53
2023-02-16 18:57:00,,0827.9,5.01,0.00,21.7,19.8,00.0,30.7,23.3,07.5,0000.0,0007.25,0003.97,0003.56
2023-02-16 18:58:00,,0827.9,5.03,0.00,21.7,19.8,00.0,30.7,23.3,07.5,0000.0,0007.14,0003.99,0003.59
2023-02-16 18:59:00,,0827.8,5.01,0.00,21.7,19.8,00.0,30.7,23.3,07.7,0000.0,0007.03,0004.01,0003.63
